Location: Marsån
(66.4167°N, 22.2833°E)
Time: 10:35:58
(UTC+00:00)

Cosmos 1980 Rocket - Pass Details

Date: 24 February 2024
Orbit: 828 x 850 km, 71.0° (Epoch: 15 April)

Event Time Altitude Azimuth Distance (km) Brightness Sun altitude
Rises 17:39:23 0° 316° (NW) 3,388 6.2 -14.2°
Reaches altitude 10° 17:42:13 10° 304° (WNW) 2,452 5.7 -14.4°
Maximum altitude 17:46:37 24° 252° (WSW) 1,657 4.5 -14.9°
Drops below altitude 10° 17:51:02 10° 200° (SSW) 2,452 4.7 -15.3°
Sets 17:53:52 0° 187° (S) 3,386 5.3 -15.6°
